User: anonymous   Login
Location: Unspecified
(50.0959°N, 14.3921°E)
Time: 08:53:47
(UTC+01:00)
Language:

GALEX - Orbit

View from above orbital plane
View from above orbital plane
View from above satellite
View from above satellite

Ground track
Ground track

The orbit data is extracted from the following two-line orbital elements,

1 27783U 03017A   22343.35643320  .00000770  00000-0  12809-3 0  9995
2 27783  28.9977  99.4802 0003670 338.8991  21.1445 14.62636473 48562
Epoch (UTC): 09 December 2022 08:33:15
Eccentricity: 0.0003670
inclination: 28.9977°
perigee height: 682 km
apogee height: 687 km
right ascension of ascending node: 99.4802°
argument of perigee: 338.8991°
revolutions per day: 14.62636473
mean anomaly at epoch: 21.1445°
orbit number at epoch: 4856

The dashed part of the orbit path shows where the satellite is in the earth's shadow,  

DLR